M I D A S
Marine Information and Data Acquisition System
Tripno 2293 of the Zeeleeuw from 2012-04-19 13:09:01 to 2012-04-19 13:09:03
Back to CruiseResearch ActivitiesStationsMapUnderway DataData graphs

EquipmentUnitsComments
TimeDGPSUTC
LatitudeDGPSDM.mWGS84
LongitudeDGPSDM.mWGS84
SpeedMeteo Stationm/sRelative wind speed
DirectionMeteo StationdegRelative wind direction
TemperatureMeteo Stationdeg CelciusAir temperature
PressureMeteo StationPaAtmospheric pressure
HumidityMeteo Station%Relative humidity
Missing or incorrect values are displayed as -999
Metereological data collected by the RV Zeeleeuw from 2012-04-19 08:09:03 to 2012-04-19 13:27:47
                                                                                    Next 1000 lines
Time Latitude Longitude Speed Direction Temperature Pressure Humidity
2012-04-19 08:09:13 51°26.034 2°48.662 5.6 39 7.6 98390 47
2012-04-19 08:09:19 51°26.044 2°48.666 5.2 28 7.6 98400 47
2012-04-19 08:09:23 51°26.051 2°48.665 8.3 34 7.6 98400 47
2012-04-19 08:09:28 51°26.059 2°48.663 10.5 22 7.6 98400 48
2012-04-19 08:09:33 51°26.066 2°48.659 8.4 55 7.6 98400 48
2012-04-19 08:09:39 51°26.074 2°48.653 8.7 20 7.6 98400 46
2012-04-19 08:09:43 51°26.079 2°48.649 8.8 270 7.6 98400 46
2012-04-19 08:09:48 51°26.085 2°48.641 9.1 24 7.6 98420 47
2012-04-19 08:09:53 51°26.089 2°48.633 7.9 305 7.6 98420 47
2012-04-19 08:09:58 51°26.092 2°48.624 10 264 7.6 98430 47
2012-04-19 08:10:03 51°26.096 2°48.615 12.6 305 7.6 98430 47
2012-04-19 08:10:08 51°26.098 2°48.606 10.7 259 7.6 98410 47
2012-04-19 08:10:13 51°26.099 2°48.599 10.2 262 7.6 98410 47
2012-04-19 08:10:18 51°26.101 2°48.592 10.5 259 7.6 98420 48
2012-04-19 08:10:23 51°26.102 2°48.585 10.3 303 7.6 98420 48
2012-04-19 08:10:28 51°26.103 2°48.58 10.4 264 7.6 98410 48
2012-04-19 08:10:33 51°26.105 2°48.576 7.2 265 7.6 98410 48
2012-04-19 08:10:38 51°26.106 2°48.572 9.3 263 7.7 98420 47
2012-04-19 08:10:43 51°26.107 2°48.568 8.2 269 7.7 98420 47
2012-04-19 08:10:48 51°26.107 2°48.565 10.6 270 7.7 98410 48
2012-04-19 08:10:53 51°26.108 2°48.562 8.5 268 7.7 98410 48
2012-04-19 08:10:58 51°26.108 2°48.56 11.1 270 7.7 98430 48
2012-04-19 08:11:03 51°26.108 2°48.558 8.6 266 7.7 98430 48
2012-04-19 08:11:08 51°26.108 2°48.557 9 267 7.7 98420 48
2012-04-19 08:11:13 51°26.108 2°48.557 8.5 282 7.7 98420 48
2012-04-19 08:11:18 51°26.108 2°48.557 9.2 266 7.7 98430 48
2012-04-19 08:11:23 51°26.108 2°48.556 10.9 268 7.7 98430 48
2012-04-19 08:11:27 51°26.108 2°48.556 9.2 266 7.7 98450 48
2012-04-19 08:11:33 51°26.108 2°48.555 6.2 299 7.7 98450 48
2012-04-19 08:11:38 51°26.108 2°48.555 5.6 269 7.7 98440 46
2012-04-19 08:11:43 51°26.108 2°48.554 5 306 7.7 98440 46
2012-04-19 08:11:48 51°26.108 2°48.554 9.5 266 7.6 98440 48
2012-04-19 08:11:53 51°26.108 2°48.553 8.4 305 7.6 98440 48
2012-04-19 08:11:58 51°26.108 2°48.553 6.3 269 7.6 98440 46
2012-04-19 08:12:03 51°26.109 2°48.552 4.8 268 7.6 98440 46
2012-04-19 08:12:08 51°26.109 2°48.552 11.1 267 7.6 98440 47
2012-04-19 08:12:13 51°26.109 2°48.552 9 305 7.6 98440 47
2012-04-19 08:12:18 51°26.109 2°48.552 4.9 270 7.6 98420 47
2012-04-19 08:12:23 51°26.109 2°48.552 8.7 301 7.6 98420 47
2012-04-19 08:12:28 51°26.109 2°48.551 10.5 268 7.6 98420 47
2012-04-19 08:12:33 51°26.109 2°48.551 4 264 7.6 98420 47
2012-04-19 08:12:38 51°26.109 2°48.551 9.3 264 7.6 98430 48
2012-04-19 08:12:43 51°26.109 2°48.55 4.4 302 7.6 98430 48
2012-04-19 08:12:48 51°26.109 2°48.55 8 269 7.6 98420 44
2012-04-19 08:12:53 51°26.109 2°48.55 8.9 270 7.6 98420 44
2012-04-19 08:12:58 51°26.109 2°48.55 7.4 268 7.6 98420 46
2012-04-19 08:13:03 51°26.109 2°48.549 9.4 270 7.6 98420 46
2012-04-19 08:13:08 51°26.109 2°48.549 8.8 269 7.6 98420 48
2012-04-19 08:13:13 51°26.109 2°48.549 9.5 269 7.6 98420 48
2012-04-19 08:13:18 51°26.109 2°48.548 10.6 270 7.6 98430 48
2012-04-19 08:13:23 51°26.11 2°48.548 8.2 269 7.6 98430 48
2012-04-19 08:13:28 51°26.109 2°48.548 9.6 25 7.6 98430 47
2012-04-19 08:13:33 51°26.11 2°48.548 8.1 268 7.6 98430 47
2012-04-19 08:13:39 51°26.11 2°48.548 10.1 269 7.7 98430 48
2012-04-19 08:13:43 51°26.11 2°48.547 10.4 270 7.7 98430 48
2012-04-19 08:13:47 51°26.11 2°48.547 10.4 266 7.7 98450 48
2012-04-19 08:13:53 51°26.109 2°48.547 10.3 302 7.7 98450 48
2012-04-19 08:13:58 51°26.109 2°48.547 12 270 7.7 98450 46
2012-04-19 08:14:03 51°26.11 2°48.547 12.8 268 7.7 98450 46
2012-04-19 08:14:08 51°26.109 2°48.546 4 265 7.7 98420 47
2012-04-19 08:14:13 51°26.11 2°48.546 9.1 281 7.7 98420 47
2012-04-19 08:14:18 51°26.109 2°48.546 9.7 267 7.7 98420 45
2012-04-19 08:14:23 51°26.109 2°48.546 5.3 269 7.7 98420 45
2012-04-19 08:14:28 51°26.11 2°48.546 8.9 270 7.7 98420 48
2012-04-19 08:14:33 51°26.11 2°48.545 10.2 268 7.7 98420 48
2012-04-19 08:14:38 51°26.11 2°48.545 10.7 268 7.7 98420 48
2012-04-19 08:14:43 51°26.11 2°48.545 7.7 270 7.7 98420 48
2012-04-19 08:14:48 51°26.11 2°48.545 9.4 268 7.7 98440 47
2012-04-19 08:14:53 51°26.11 2°48.545 6.7 306 7.7 98440 47
2012-04-19 08:14:58 51°26.11 2°48.545 7.5 266 7.7 98410 47
2012-04-19 08:15:03 51°26.11 2°48.545 9 305 7.7 98410 47
2012-04-19 08:15:08 51°26.11 2°48.545 6.4 265 7.7 98420 46
2012-04-19 08:15:13 51°26.11 2°48.545 7.4 264 7.7 98420 46
2012-04-19 08:15:18 51°26.111 2°48.545 8.8 267 7.7 98430 48
2012-04-19 08:15:23 51°26.111 2°48.545 9.7 309 7.7 98430 48
2012-04-19 08:15:27 51°26.111 2°48.545 4.9 268 7.7 98430 47
2012-04-19 08:15:33 51°26.111 2°48.544 7 305 7.7 98430 47
2012-04-19 08:15:38 51°26.111 2°48.544 7.3 266 7.7 98440 48
2012-04-19 08:15:43 51°26.112 2°48.544 7.4 264 7.7 98440 48
2012-04-19 08:15:48 51°26.112 2°48.543 8.4 265 7.7 98430 47
2012-04-19 08:15:53 51°26.112 2°48.543 6.5 304 7.7 98430 47
2012-04-19 08:15:58 51°26.112 2°48.543 10.9 263 7.7 98450 46
2012-04-19 08:16:03 51°26.112 2°48.543 6.9 264 7.7 98450 46
2012-04-19 08:16:08 51°26.112 2°48.543 7.4 264 7.7 98430 48
2012-04-19 08:16:13 51°26.112 2°48.543 8.2 304 7.7 98430 48
2012-04-19 08:16:18 51°26.112 2°48.542 4.1 267 7.7 98440 47
2012-04-19 08:16:23 51°26.112 2°48.542 7.3 267 7.7 98440 47
2012-04-19 08:16:28 51°26.113 2°48.542 6.8 267 7.7 98420 48
2012-04-19 08:16:33 51°26.113 2°48.542 6.7 265 7.7 98420 48
2012-04-19 08:16:38 51°26.113 2°48.542 7 265 7.7 98430 48
2012-04-19 08:16:43 51°26.113 2°48.542 10.3 303 7.7 98430 48
2012-04-19 08:16:48 51°26.113 2°48.541 11.6 263 7.8 98440 48
2012-04-19 08:16:53 51°26.113 2°48.541 8 264 7.8 98440 48
2012-04-19 08:16:58 51°26.113 2°48.541 9.6 265 7.7 98430 46
2012-04-19 08:17:03 51°26.113 2°48.541 7.6 268 7.7 98430 46
2012-04-19 08:17:08 51°26.113 2°48.541 5.1 264 7.7 98430 47
2012-04-19 08:17:13 51°26.114 2°48.54 9.7 285 7.7 98430 47
2012-04-19 08:17:18 51°26.113 2°48.54 6.1 263 7.8 98410 47
2012-04-19 08:17:23 51°26.114 2°48.54 8.4 266 7.8 98410 47
2012-04-19 08:17:28 51°26.114 2°48.54 5.6 264 7.8 98410 47
2012-04-19 08:17:33 51°26.114 2°48.539 9.5 264 7.8 98410 47
2012-04-19 08:17:38 51°26.114 2°48.539 7.4 267 7.8 98410 48
2012-04-19 08:17:43 51°26.114 2°48.539 7.6 308 7.8 98410 48
2012-04-19 08:17:48 51°26.114 2°48.539 4.2 265 7.8 98420 47
2012-04-19 08:17:53 51°26.114 2°48.539 9.5 305 7.8 98420 47
2012-04-19 08:17:58 51°26.115 2°48.538 3.8 267 7.7 98450 48
2012-04-19 08:18:03 51°26.115 2°48.538 4.7 267 7.7 98450 48
2012-04-19 08:18:08 51°26.115 2°48.538 10.3 267 7.7 98440 46
2012-04-19 08:18:13 51°26.115 2°48.538 4 303 7.7 98440 46
2012-04-19 08:18:18 51°26.115 2°48.538 4.3 266 7.7 98430 47
2012-04-19 08:18:23 51°26.116 2°48.538 4.4 267 7.7 98430 47
2012-04-19 08:18:28 51°26.116 2°48.537 4.6 266 7.7 98430 47
2012-04-19 08:18:33 51°26.116 2°48.537 9.9 265 7.7 98430 47
2012-04-19 08:18:38 51°26.116 2°48.537 7.9 265 7.7 98440 48
2012-04-19 08:18:43 51°26.116 2°48.537 4.5 265 7.7 98440 48
2012-04-19 08:18:48 51°26.116 2°48.536 10.2 268 7.7 98450 46
2012-04-19 08:18:53 51°26.117 2°48.536 4.3 304 7.7 98450 46
2012-04-19 08:18:58 51°26.117 2°48.536 4.6 265 7.7 98470 48
2012-04-19 08:19:03 51°26.117 2°48.536 5 305 7.7 98470 48
2012-04-19 08:19:08 51°26.117 2°48.535 4.7 263 7.7 98440 48
2012-04-19 08:19:13 51°26.118 2°48.536 8.7 309 7.7 98440 48
2012-04-19 08:19:18 51°26.118 2°48.535 4.5 267 7.7 98450 48
2012-04-19 08:19:23 51°26.118 2°48.535 4.4 306 7.7 98450 48
2012-04-19 08:19:27 51°26.118 2°48.535 3.8 264 7.7 98440 47
2012-04-19 08:19:33 51°26.118 2°48.535 4.6 266 7.7 98440 47
2012-04-19 08:19:38 51°26.118 2°48.534 10.2 265 7.7 98440 45
2012-04-19 08:19:43 51°26.118 2°48.534 7.7 306 7.7 98440 45
2012-04-19 08:19:47 51°26.118 2°48.534 8.4 264 7.7 98480 47
2012-04-19 08:19:53 51°26.118 2°48.533 12.3 304 7.7 98480 47
2012-04-19 08:19:58 51°26.119 2°48.533 10.6 263 7.7 98450 47
2012-04-19 08:20:03 51°26.119 2°48.533 8.4 265 7.7 98450 47
2012-04-19 08:20:08 51°26.12 2°48.533 10.9 264 7.7 98460 47
2012-04-19 08:20:13 51°26.12 2°48.533 8.4 309 7.7 98460 47
2012-04-19 08:20:18 51°26.12 2°48.533 8.3 265 7.7 98460 46
2012-04-19 08:20:23 51°26.12 2°48.533 6.5 265 7.7 98460 46
2012-04-19 08:20:28 51°26.121 2°48.533 4.8 263 7.7 98450 47
2012-04-19 08:20:33 51°26.121 2°48.532 4.8 306 7.7 98450 47
2012-04-19 08:20:38 51°26.121 2°48.532 4 267 7.7 98440 46
2012-04-19 08:20:43 51°26.121 2°48.532 4.4 270 7.7 98440 46
2012-04-19 08:20:48 51°26.121 2°48.532 11.4 264 7.8 98440 48
2012-04-19 08:20:53 51°26.121 2°48.532 4.4 265 7.8 98440 48
2012-04-19 08:20:58 51°26.122 2°48.532 9.6 264 7.8 98450 48
2012-04-19 08:21:03 51°26.122 2°48.532 10.8 267 7.8 98450 48
2012-04-19 08:21:08 51°26.122 2°48.532 4 268 7.8 98440 47
2012-04-19 08:21:13 51°26.123 2°48.532 9.5 268 7.8 98440 47
2012-04-19 08:21:18 51°26.122 2°48.531 10.2 269 7.7 98450 46
2012-04-19 08:21:23 51°26.123 2°48.531 5.8 40 7.7 98450 46
2012-04-19 08:21:28 51°26.123 2°48.531 10.3 270 7.7 98440 48
2012-04-19 08:21:33 51°26.123 2°48.531 5.5 305 7.7 98440 48
2012-04-19 08:21:38 51°26.123 2°48.531 10.1 266 7.7 98440 48
2012-04-19 08:21:43 51°26.123 2°48.531 12.3 309 7.7 98440 48
2012-04-19 08:21:48 51°26.124 2°48.53 4.4 266 7.7 98450 48
2012-04-19 08:21:53 51°26.124 2°48.53 7.8 266 7.7 98450 48
2012-04-19 08:21:58 51°26.124 2°48.53 4.3 266 7.7 98460 48
2012-04-19 08:22:03 51°26.124 2°48.53 7.2 305 7.7 98460 48
2012-04-19 08:22:08 51°26.125 2°48.53 4.2 267 7.7 98440 48
2012-04-19 08:22:13 51°26.125 2°48.529 8.7 263 7.7 98440 48
2012-04-19 08:22:18 51°26.125 2°48.529 7.6 266 7.7 98430 47
2012-04-19 08:22:23 51°26.126 2°48.528 10.5 264 7.7 98430 47
2012-04-19 08:22:28 51°26.126 2°48.528 8.2 266 7.8 98460 47
2012-04-19 08:22:33 51°26.126 2°48.528 8.7 304 7.8 98460 47
2012-04-19 08:22:38 51°26.127 2°48.528 7.2 265 7.7 98460 46
2012-04-19 08:22:43 51°26.126 2°48.527 11.7 263 7.7 98460 46
2012-04-19 08:22:47 51°26.126 2°48.527 10.7 267 7.7 98460 48
2012-04-19 08:22:53 51°26.127 2°48.527 9.9 266 7.7 98460 48
2012-04-19 08:22:58 51°26.127 2°48.527 5 264 7.8 98450 48
2012-04-19 08:23:03 51°26.128 2°48.526 8.6 265 7.8 98450 48
2012-04-19 08:23:08 51°26.129 2°48.526 10.8 264 7.8 98470 46
2012-04-19 08:23:13 51°26.13 2°48.526 10.5 286 7.8 98470 46
2012-04-19 08:23:18 51°26.13 2°48.526 4.7 265 7.7 98430 46
2012-04-19 08:23:23 51°26.13 2°48.525 6.5 266 7.7 98430 46
2012-04-19 08:23:28 51°26.13 2°48.525 6.7 263 7.8 98460 48
2012-04-19 08:23:33 51°26.13 2°48.525 9.4 309 7.8 98460 48
2012-04-19 08:23:38 51°26.131 2°48.525 4.3 266 7.8 98460 47
2012-04-19 08:23:43 51°26.131 2°48.525 8.2 310 7.8 98460 47
2012-04-19 08:23:48 51°26.13 2°48.524 7 267 7.8 98450 48
2012-04-19 08:23:53 51°26.131 2°48.524 8.9 263 7.8 98450 48
2012-04-19 08:23:58 51°26.131 2°48.524 8.9 264 7.8 98470 48
2012-04-19 08:24:03 51°26.131 2°48.524 5 264 7.8 98470 48
2012-04-19 08:24:07 51°26.131 2°48.524 12.9 263 7.8 98460 47
2012-04-19 08:24:13 51°26.132 2°48.523 14.4 263 7.8 98460 47
2012-04-19 08:24:18 51°26.132 2°48.523 9.4 263 7.8 98450 47
2012-04-19 08:24:23 51°26.132 2°48.524 11 267 7.8 98450 47
2012-04-19 08:24:28 51°26.133 2°48.524 4.4 263 7.8 98440 48
2012-04-19 08:24:33 51°26.133 2°48.524 6.4 265 7.8 98440 48
2012-04-19 08:24:38 51°26.133 2°48.524 6.9 263 7.8 98440 47
2012-04-19 08:24:43 51°26.133 2°48.524 7.3 264 7.8 98440 47
2012-04-19 08:24:48 51°26.133 2°48.524 6.9 265 7.8 98440 48
2012-04-19 08:24:53 51°26.133 2°48.523 9.7 270 7.8 98440 48
2012-04-19 08:24:58 51°26.134 2°48.524 7.8 266 7.8 98470 47
2012-04-19 08:25:03 51°26.134 2°48.524 5.2 268 7.8 98470 47
2012-04-19 08:25:07 51°26.134 2°48.524 4.4 268 7.8 98450 46
2012-04-19 08:25:13 51°26.134 2°48.524 4.3 268 7.8 98450 46
2012-04-19 08:25:18 51°26.134 2°48.524 6.8 267 7.8 98460 48
2012-04-19 08:25:23 51°26.134 2°48.524 8.3 265 7.8 98460 48
2012-04-19 08:25:28 51°26.134 2°48.524 4.3 267 7.8 98440 48
2012-04-19 08:25:33 51°26.135 2°48.524 7.6 306 7.8 98440 48
2012-04-19 08:25:38 51°26.135 2°48.524 11.1 266 7.8 98470 47
2012-04-19 08:25:43 51°26.135 2°48.524 4.4 265 7.8 98470 47
2012-04-19 08:25:48 51°26.135 2°48.525 5 268 7.8 98440 47
2012-04-19 08:25:53 51°26.135 2°48.525 5.1 298 7.8 98440 47
2012-04-19 08:25:58 51°26.135 2°48.525 3.8 265 7.8 98440 48
2012-04-19 08:26:03 51°26.135 2°48.525 8.3 306 7.8 98440 48
2012-04-19 08:26:08 51°26.135 2°48.525 8.5 267 7.8 98450 48
2012-04-19 08:26:13 51°26.135 2°48.525 9.8 269 7.8 98450 48
2012-04-19 08:26:18 51°26.136 2°48.525 10.7 270 7.9 98460 48
2012-04-19 08:26:23 51°26.136 2°48.526 4.8 268 7.9 98460 48
2012-04-19 08:26:27 51°26.135 2°48.525 8.4 268 7.9 98440 46
2012-04-19 08:26:33 51°26.136 2°48.526 4.9 267 7.9 98440 46
2012-04-19 08:26:38 51°26.136 2°48.526 4.4 267 7.9 98470 47
2012-04-19 08:26:43 51°26.136 2°48.526 3.8 304 7.9 98470 47
2012-04-19 08:26:48 51°26.136 2°48.526 10.2 268 7.8 98460 47
2012-04-19 08:26:53 51°26.136 2°48.526 7.6 306 7.8 98460 47
2012-04-19 08:26:58 51°26.136 2°48.527 5.6 269 7.8 98470 47
2012-04-19 08:27:03 51°26.136 2°48.527 4.5 267 7.8 98470 47
2012-04-19 08:27:08 51°26.137 2°48.527 5 267 7.8 98460 48
2012-04-19 08:27:13 51°26.137 2°48.527 4.2 281 7.8 98460 48
2012-04-19 08:27:18 51°26.137 2°48.527 8.4 268 7.8 98460 46
2012-04-19 08:27:23 51°26.137 2°48.527 9.9 265 7.8 98460 46
2012-04-19 08:27:28 51°26.138 2°48.527 6.6 267 7.8 98470 48
2012-04-19 08:27:33 51°26.138 2°48.527 4.9 304 7.8 98470 48
2012-04-19 08:27:38 51°26.138 2°48.528 11.1 267 7.8 98470 45
2012-04-19 08:27:43 51°26.138 2°48.528 9.9 268 7.8 98470 45
2012-04-19 08:27:48 51°26.138 2°48.528 4.6 266 7.8 98450 47
2012-04-19 08:27:53 51°26.138 2°48.528 10.2 54 7.8 98450 47
2012-04-19 08:27:58 51°26.138 2°48.528 4.9 267 7.8 98440 48
2012-04-19 08:28:03 51°26.139 2°48.528 5.2 267 7.8 98440 48
2012-04-19 08:28:08 51°26.139 2°48.528 5.4 268 7.8 98460 48
2012-04-19 08:28:13 51°26.139 2°48.529 4.6 266 7.8 98460 48
2012-04-19 08:28:18 51°26.139 2°48.529 7.8 267 7.8 98430 47
2012-04-19 08:28:23 51°26.14 2°48.529 10.4 268 7.8 98430 47
2012-04-19 08:28:27 51°26.14 2°48.529 4.6 266 7.8 98480 47
2012-04-19 08:28:33 51°26.14 2°48.529 7.3 305 7.8 98480 47
2012-04-19 08:28:38 51°26.141 2°48.529 8.4 266 7.8 98470 48
2012-04-19 08:28:43 51°26.141 2°48.529 8.7 267 7.8 98470 48
2012-04-19 08:28:48 51°26.141 2°48.529 5 265 7.8 98470 48
2012-04-19 08:28:53 51°26.141 2°48.529 4.4 267 7.8 98470 48
2012-04-19 08:28:58 51°26.142 2°48.529 3.3 267 7.8 98450 48
2012-04-19 08:29:03 51°26.142 2°48.529 9.9 306 7.8 98450 48
2012-04-19 08:29:08 51°26.142 2°48.529 4.9 268 7.8 98460 48
2012-04-19 08:29:13 51°26.143 2°48.529 11.2 283 7.8 98460 48
2012-04-19 08:29:18 51°26.143 2°48.529 10.1 263 7.8 98450 48
2012-04-19 08:29:23 51°26.143 2°48.529 6.1 264 7.8 98450 48
2012-04-19 08:29:28 51°26.144 2°48.529 2.8 265 7.8 98460 47
2012-04-19 08:29:33 51°26.144 2°48.53 2.6 304 7.8 98460 47
2012-04-19 08:29:38 51°26.145 2°48.53 9.7 263 7.8 98470 47
2012-04-19 08:29:43 51°26.145 2°48.53 4.3 268 7.8 98470 47
2012-04-19 08:29:48 51°26.145 2°48.53 9.5 264 7.8 98470 48
2012-04-19 08:29:53 51°26.146 2°48.531 4.9 302 7.8 98470 48
2012-04-19 08:29:58 51°26.146 2°48.531 4.4 267 7.8 98460 46
2012-04-19 08:30:03 51°26.146 2°48.531 5 265 7.8 98460 46
2012-04-19 08:30:08 51°26.147 2°48.531 7.6 266 7.8 98460 47
2012-04-19 08:30:13 51°26.147 2°48.532 3.8 267 7.8 98460 47
2012-04-19 08:30:18 51°26.147 2°48.532 4.4 268 7.8 98450 46
2012-04-19 08:30:23 51°26.147 2°48.532 7.5 308 7.8 98450 46
2012-04-19 08:30:28 51°26.148 2°48.533 5.1 264 7.8 98450 47
2012-04-19 08:30:33 51°26.148 2°48.533 8.9 265 7.8 98450 47
2012-04-19 08:30:38 51°26.148 2°48.533 8.2 266 7.8 98460 47
2012-04-19 08:30:43 51°26.149 2°48.534 4.1 266 7.8 98460 47
2012-04-19 08:30:48 51°26.149 2°48.534 4.4 263 7.8 98470 48
2012-04-19 08:30:53 51°26.149 2°48.534 5.2 268 7.8 98470 48
2012-04-19 08:30:58 51°26.15 2°48.535 5.1 268 7.8 98470 47
2012-04-19 08:31:03 51°26.15 2°48.535 4.1 268 7.8 98470 47
2012-04-19 08:31:08 51°26.151 2°48.536 4.7 266 7.8 98460 47
2012-04-19 08:31:13 51°26.151 2°48.536 10.6 305 7.8 98460 47
2012-04-19 08:31:18 51°26.152 2°48.536 9 268 7.8 98460 47
2012-04-19 08:31:23 51°26.152 2°48.537 8.2 305 7.8 98460 47
2012-04-19 08:31:28 51°26.152 2°48.537 5.2 270 7.8 98450 47
2012-04-19 08:31:33 51°26.152 2°48.537 5.2 305 7.8 98450 47
2012-04-19 08:31:38 51°26.152 2°48.538 8.3 268 7.8 98470 47
2012-04-19 08:31:43 51°26.152 2°48.538 4.8 267 7.8 98470 47
2012-04-19 08:31:48 51°26.152 2°48.539 4.1 266 7.8 98460 47
2012-04-19 08:31:53 51°26.153 2°48.539 8.8 310 7.8 98460 47
2012-04-19 08:31:58 51°26.153 2°48.539 8.5 269 7.9 98480 47
2012-04-19 08:32:03 51°26.153 2°48.539 8.5 268 7.9 98480 47
2012-04-19 08:32:08 51°26.153 2°48.54 9.9 265 7.9 98460 48
2012-04-19 08:32:13 51°26.153 2°48.54 3.9 268 7.9 98460 48
2012-04-19 08:32:18 51°26.154 2°48.541 6.5 266 7.9 98470 47
2012-04-19 08:32:23 51°26.154 2°48.541 6.1 267 7.9 98470 47
2012-04-19 08:32:28 51°26.154 2°48.542 6.5 267 7.9 98470 48
2012-04-19 08:32:33 51°26.155 2°48.542 6.5 308 7.9 98470 48
2012-04-19 08:32:38 51°26.155 2°48.542 5.7 267 7.9 98450 47
2012-04-19 08:32:43 51°26.155 2°48.543 5.3 301 7.9 98450 47
2012-04-19 08:32:47 51°26.155 2°48.543 11.7 268 7.9 98460 46
2012-04-19 08:32:53 51°26.155 2°48.543 7.7 267 7.9 98460 46
2012-04-19 08:32:58 51°26.155 2°48.543 4.2 267 7.9 98470 46
2012-04-19 08:33:03 51°26.155 2°48.544 9.3 310 7.9 98470 46
2012-04-19 08:33:07 51°26.156 2°48.544 9.7 269 7.9 98480 46
2012-04-19 08:33:13 51°26.156 2°48.544 8.9 270 7.9 98480 46
2012-04-19 08:33:18 51°26.156 2°48.545 8.8 270 7.9 98470 48
2012-04-19 08:33:23 51°26.156 2°48.545 10.1 270 7.9 98470 48
2012-04-19 08:33:28 51°26.156 2°48.545 4.3 267 7.9 98460 47
2012-04-19 08:33:33 51°26.156 2°48.545 8.2 310 7.9 98460 47
2012-04-19 08:33:38 51°26.157 2°48.546 9.8 267 7.9 98460 47
2012-04-19 08:33:43 51°26.157 2°48.545 7.4 267 7.9 98460 47
2012-04-19 08:33:48 51°26.158 2°48.546 7.5 267 7.9 98460 47
2012-04-19 08:33:53 51°26.158 2°48.546 8.4 304 7.9 98460 47
2012-04-19 08:33:58 51°26.158 2°48.546 10.1 261 7.9 98460 47
2012-04-19 08:34:03 51°26.158 2°48.547 9.5 265 7.9 98460 47
2012-04-19 08:34:08 51°26.158 2°48.547 4.3 268 7.9 98460 48
2012-04-19 08:34:13 51°26.159 2°48.547 4.8 265 7.9 98460 48
2012-04-19 08:34:18 51°26.159 2°48.548 9.6 265 7.9 98450 48
2012-04-19 08:34:23 51°26.159 2°48.548 4.5 266 7.9 98450 48
2012-04-19 08:34:28 51°26.16 2°48.549 9.5 267 7.9 98460 48
2012-04-19 08:34:33 51°26.16 2°48.549 6.9 267 7.9 98460 48
2012-04-19 08:34:38 51°26.16 2°48.55 4.1 265 7.9 98440 48
2012-04-19 08:34:43 51°26.16 2°48.55 10.9 265 7.9 98440 48
2012-04-19 08:34:48 51°26.161 2°48.551 8.3 265 7.9 98460 47
2012-04-19 08:34:53 51°26.161 2°48.551 7.7 303 7.9 98460 47
2012-04-19 08:34:58 51°26.161 2°48.552 8.1 266 7.8 98460 47
2012-04-19 08:35:03 51°26.161 2°48.552 7.5 304 7.8 98460 47
2012-04-19 08:35:08 51°26.161 2°48.552 2.6 265 7.8 98460 46
2012-04-19 08:35:13 51°26.162 2°48.553 8.5 270 7.8 98460 46
2012-04-19 08:35:18 51°26.162 2°48.553 8.4 268 7.8 98460 48
2012-04-19 08:35:23 51°26.162 2°48.554 10.6 305 7.8 98460 48
2012-04-19 08:35:27 51°26.162 2°48.554 10.9 267 7.8 98460 47
2012-04-19 08:35:33 51°26.162 2°48.554 5 266 7.8 98460 47
2012-04-19 08:35:38 51°26.162 2°48.555 9.4 267 7.8 98460 47
2012-04-19 08:35:43 51°26.162 2°48.555 5 267 7.8 98460 47
2012-04-19 08:35:48 51°26.163 2°48.555 5.1 268 7.9 98450 48
2012-04-19 08:35:53 51°26.163 2°48.556 4 306 7.9 98450 48
2012-04-19 08:35:58 51°26.163 2°48.556 6.2 267 7.9 98450 48
2012-04-19 08:36:03 51°26.164 2°48.556 8.2 266 7.9 98450 48
2012-04-19 08:36:08 51°26.164 2°48.556 8.1 265 7.9 98460 48
2012-04-19 08:36:13 51°26.164 2°48.557 7 283 7.9 98460 48
2012-04-19 08:36:18 51°26.164 2°48.557 7.7 266 7.9 98460 48
2012-04-19 08:36:23 51°26.165 2°48.557 8.4 270 7.9 98460 48
2012-04-19 08:36:28 51°26.165 2°48.557 6.6 267 7.8 98440 48
2012-04-19 08:36:33 51°26.165 2°48.557 7.8 306 7.8 98440 48
2012-04-19 08:36:38 51°26.165 2°48.557 4.2 267 7.9 98440 48
2012-04-19 08:36:43 51°26.166 2°48.558 4.3 304 7.9 98440 48
2012-04-19 08:36:48 51°26.166 2°48.558 7 265 7.9 98450 47
2012-04-19 08:36:53 51°26.166 2°48.558 10.3 304 7.9 98450 47
2012-04-19 08:36:58 51°26.166 2°48.558 9.1 266 7.9 98460 48
2012-04-19 08:37:03 51°26.166 2°48.558 6.4 306 7.9 98460 48
2012-04-19 08:37:08 51°26.166 2°48.558 11 263 7.9 98470 48
2012-04-19 08:37:13 51°26.166 2°48.558 8 265 7.9 98470 48
2012-04-19 08:37:18 51°26.167 2°48.558 7.3 266 7.9 98460 48
2012-04-19 08:37:23 51°26.167 2°48.559 5.6 265 7.9 98460 48
2012-04-19 08:37:27 51°26.167 2°48.559 15 262 7.9 98480 48
2012-04-19 08:37:33 51°26.168 2°48.559 11.3 264 7.9 98480 48
2012-04-19 08:37:38 51°26.168 2°48.56 12.8 261 7.9 98460 48
2012-04-19 08:37:43 51°26.168 2°48.56 9.7 264 7.9 98460 48
2012-04-19 08:37:48 51°26.168 2°48.56 10.5 265 7.9 98450 48
2012-04-19 08:37:53 51°26.168 2°48.561 8.3 264 7.9 98450 48
2012-04-19 08:37:58 51°26.168 2°48.561 4.7 264 7.9 98470 48
2012-04-19 08:38:03 51°26.169 2°48.561 7 306 7.9 98470 48
2012-04-19 08:38:08 51°26.169 2°48.562 7.9 267 7.9 98470 48
2012-04-19 08:38:13 51°26.169 2°48.562 10 307 7.9 98470 48
2012-04-19 08:38:18 51°26.17 2°48.562 9.5 263 7.9 98460 47
2012-04-19 08:38:23 51°26.17 2°48.563 5.9 263 7.9 98460 47
2012-04-19 08:38:28 51°26.17 2°48.563 4.4 266 7.9 98470 48
2012-04-19 08:38:33 51°26.17 2°48.564 4.6 304 7.9 98470 48
2012-04-19 08:38:38 51°26.17 2°48.564 11.2 266 7.9 98450 47
2012-04-19 08:38:43 51°26.171 2°48.565 4.6 265 7.9 98450 47
2012-04-19 08:38:48 51°26.171 2°48.565 7.4 267 7.9 98460 48
2012-04-19 08:38:53 51°26.171 2°48.566 4.3 306 7.9 98460 48
2012-04-19 08:38:58 51°26.171 2°48.566 9.3 264 7.9 98460 48
2012-04-19 08:39:03 51°26.172 2°48.567 7.9 265 7.9 98460 48
2012-04-19 08:39:08 51°26.172 2°48.567 4.7 266 7.9 98480 47
2012-04-19 08:39:13 51°26.173 2°48.567 4.2 266 7.9 98480 47
2012-04-19 08:39:18 51°26.173 2°48.568 4.6 266 7.9 98450 47
2012-04-19 08:39:23 51°26.173 2°48.569 4.3 266 7.9 98450 47
2012-04-19 08:39:28 51°26.174 2°48.569 8.8 265 7.9 98470 48
2012-04-19 08:39:33 51°26.174 2°48.57 10.5 306 7.9 98470 48
2012-04-19 08:39:38 51°26.174 2°48.57 9.2 265 7.8 98480 47
2012-04-19 08:39:43 51°26.174 2°48.571 7 305 7.8 98480 47
2012-04-19 08:39:47 51°26.175 2°48.571 7.9 263 7.8 98470 46
2012-04-19 08:39:53 51°26.175 2°48.572 7.5 267 7.8 98470 46
2012-04-19 08:39:58 51°26.175 2°48.572 8.5 265 7.8 98480 47
2012-04-19 08:40:03 51°26.175 2°48.572 10 310 7.8 98480 47
2012-04-19 08:40:07 51°26.176 2°48.573 7.5 264 7.8 98470 47
2012-04-19 08:40:13 51°26.176 2°48.573 6.4 262 7.8 98470 47
2012-04-19 08:40:18 51°26.176 2°48.574 3.3 266 7.9 98470 47
2012-04-19 08:40:23 51°26.176 2°48.575 7.4 267 7.9 98470 47
2012-04-19 08:40:28 51°26.177 2°48.575 8.6 264 7.9 98460 48
2012-04-19 08:40:33 51°26.177 2°48.575 8.1 303 7.9 98460 48
2012-04-19 08:40:38 51°26.177 2°48.576 8.2 264 7.9 98480 48
2012-04-19 08:40:43 51°26.177 2°48.576 7.9 266 7.9 98480 48
2012-04-19 08:40:48 51°26.178 2°48.577 3.9 264 7.9 98460 47
2012-04-19 08:40:53 51°26.178 2°48.578 9.2 302 7.9 98460 47
2012-04-19 08:40:58 51°26.178 2°48.578 7.2 270 7.9 98470 47
2012-04-19 08:41:03 51°26.178 2°48.579 14.3 261 7.9 98470 47
2012-04-19 08:41:08 51°26.179 2°48.579 9.2 263 7.9 98460 48
2012-04-19 08:41:13 51°26.179 2°48.58 8.5 268 7.9 98460 48
2012-04-19 08:41:18 51°26.179 2°48.581 9 268 7.9 98450 49
2012-04-19 08:41:23 51°26.18 2°48.582 6.8 265 7.9 98450 49
2012-04-19 08:41:28 51°26.18 2°48.582 4.3 268 7.9 98480 48
2012-04-19 08:41:33 51°26.18 2°48.583 4 267 7.9 98480 48
2012-04-19 08:41:38 51°26.181 2°48.584 11.8 270 7.9 98460 47
2012-04-19 08:41:43 51°26.181 2°48.585 13.2 269 7.9 98460 47
2012-04-19 08:41:48 51°26.181 2°48.585 7.9 267 7.9 98460 48
2012-04-19 08:41:53 51°26.181 2°48.586 8.2 307 7.9 98460 48
2012-04-19 08:41:58 51°26.182 2°48.587 8 266 7.9 98460 46
2012-04-19 08:42:03 51°26.182 2°48.588 4.6 270 7.9 98460 46
2012-04-19 08:42:08 51°26.182 2°48.588 7.5 265 7.8 98470 47
2012-04-19 08:42:13 51°26.182 2°48.589 9.2 268 7.8 98470 47
2012-04-19 08:42:18 51°26.182 2°48.589 7.9 266 7.8 98460 48
2012-04-19 08:42:23 51°26.183 2°48.59 8.6 305 7.8 98460 48
2012-04-19 08:42:28 51°26.183 2°48.591 7.3 265 7.8 98470 47
2012-04-19 08:42:33 51°26.183 2°48.591 8.1 267 7.8 98470 47
2012-04-19 08:42:38 51°26.183 2°48.592 5.3 268 7.9 98460 48
2012-04-19 08:42:43 51°26.183 2°48.593 8.3 266 7.9 98460 48
2012-04-19 08:42:47 51°26.183 2°48.593 7.8 269 7.9 98460 48
2012-04-19 08:42:53 51°26.183 2°48.594 4.3 267 7.9 98460 48
2012-04-19 08:42:58 51°26.184 2°48.594 8.4 266 7.8 98450 48
2012-04-19 08:43:03 51°26.184 2°48.595 8.8 270 7.8 98450 48
2012-04-19 08:43:08 51°26.184 2°48.596 8.5 269 7.8 98470 47
2012-04-19 08:43:13 51°26.184 2°48.596 7.5 306 7.8 98470 47
2012-04-19 08:43:18 51°26.184 2°48.597 9.5 271 7.9 98460 48
2012-04-19 08:43:23 51°26.184 2°48.597 6.2 270 7.9 98460 48
2012-04-19 08:43:28 51°26.185 2°48.598 8 264 7.9 98450 47
2012-04-19 08:43:33 51°26.185 2°48.598 8.2 269 7.9 98450 47
2012-04-19 08:43:38 51°26.186 2°48.599 9 269 7.9 98450 44
2012-04-19 08:43:43 51°26.186 2°48.599 4.3 268 7.9 98450 44
2012-04-19 08:43:48 51°26.186 2°48.599 7.1 268 7.9 98470 48
2012-04-19 08:43:53 51°26.186 2°48.599 7.3 267 7.9 98470 48
2012-04-19 08:43:58 51°26.186 2°48.6 4.2 266 7.9 98460 47
2012-04-19 08:44:03 51°26.186 2°48.6 7 267 7.9 98460 47
2012-04-19 08:44:08 51°26.187 2°48.6 6.2 267 7.9 98460 48
2012-04-19 08:44:13 51°26.187 2°48.6 6.7 304 7.9 98460 48
2012-04-19 08:44:18 51°26.187 2°48.601 9.2 267 7.9 98460 48
2012-04-19 08:44:23 51°26.187 2°48.601 9.5 305 7.9 98460 48
2012-04-19 08:44:27 51°26.188 2°48.601 4.2 267 7.9 98450 48
2012-04-19 08:44:33 51°26.188 2°48.601 8 266 7.9 98450 48
2012-04-19 08:44:38 51°26.188 2°48.602 9.7 266 7.9 98460 47
2012-04-19 08:44:43 51°26.189 2°48.602 4.5 270 7.9 98460 47
2012-04-19 08:44:47 51°26.189 2°48.602 10.3 269 7.9 98470 48
2012-04-19 08:44:53 51°26.189 2°48.603 7.6 269 7.9 98470 48
2012-04-19 08:44:58 51°26.19 2°48.603 4.2 266 7.9 98490 47
2012-04-19 08:45:03 51°26.19 2°48.603 8.2 267 7.9 98490 47
2012-04-19 08:45:08 51°26.19 2°48.603 8.7 266 7.9 98470 47
2012-04-19 08:45:13 51°26.191 2°48.604 9.4 285 7.9 98470 47
2012-04-19 08:45:18 51°26.191 2°48.604 9.4 264 7.8 98480 48
2012-04-19 08:45:23 51°26.191 2°48.604 7.2 265 7.8 98480 48
2012-04-19 08:45:28 51°26.192 2°48.605 9.2 266 7.9 98460 47
2012-04-19 08:45:33 51°26.192 2°48.605 8.2 305 7.9 98460 47
2012-04-19 08:45:38 51°26.193 2°48.605 8.3 265 7.8 98480 48
2012-04-19 08:45:43 51°26.193 2°48.605 9.7 307 7.8 98480 48
2012-04-19 08:45:48 51°26.193 2°48.605 6.9 269 7.8 98480 48
2012-04-19 08:45:53 51°26.193 2°48.606 8.7 311 7.8 98480 48
2012-04-19 08:45:58 51°26.194 2°48.606 7.2 268 7.8 98470 47
2012-04-19 08:46:03 51°26.194 2°48.606 4.2 305 7.8 98470 47
2012-04-19 08:46:08 51°26.195 2°48.606 10.5 265 7.8 98500 47
2012-04-19 08:46:13 51°26.195 2°48.606 8.2 307 7.8 98500 47
2012-04-19 08:46:18 51°26.196 2°48.606 4.4 263 7.8 98480 47
2012-04-19 08:46:23 51°26.196 2°48.607 9.5 307 7.8 98480 47
2012-04-19 08:46:28 51°26.197 2°48.607 8.8 267 7.8 98470 47
2012-04-19 08:46:33 51°26.197 2°48.607 8.5 308 7.8 98470 47
2012-04-19 08:46:38 51°26.198 2°48.607 8.3 267 7.8 98500 47
2012-04-19 08:46:43 51°26.198 2°48.608 8.1 307 7.8 98500 47
2012-04-19 08:46:47 51°26.198 2°48.608 7.9 264 7.8 98450 48
2012-04-19 08:46:53 51°26.199 2°48.608 10.7 309 7.8 98450 48
2012-04-19 08:46:58 51°26.199 2°48.608 8.6 265 7.8 98470 48
2012-04-19 08:47:03 51°26.2 2°48.608 10.6 307 7.8 98470 48
2012-04-19 08:47:08 51°26.2 2°48.609 10.7 263 7.8 98490 47
2012-04-19 08:47:13 51°26.201 2°48.609 10.6 286 7.8 98490 47
2012-04-19 08:47:18 51°26.201 2°48.609 4.4 268 7.8 98460 48
2012-04-19 08:47:23 51°26.202 2°48.61 8.5 304 7.8 98460 48
2012-04-19 08:47:28 51°26.203 2°48.61 6.4 262 7.8 98460 48
2012-04-19 08:47:33 51°26.203 2°48.611 5.5 305 7.8 98460 48
2012-04-19 08:47:38 51°26.204 2°48.611 8.8 266 7.9 98470 47
2012-04-19 08:47:43 51°26.204 2°48.612 11.4 307 7.9 98470 47
2012-04-19 08:47:48 51°26.205 2°48.612 8.7 266 7.9 98470 47
2012-04-19 08:47:53 51°26.205 2°48.613 11.1 305 7.9 98470 47
2012-04-19 08:47:58 51°26.206 2°48.614 8.9 265 7.9 98480 48
2012-04-19 08:48:03 51°26.207 2°48.614 10.6 305 7.9 98480 48
2012-04-19 08:48:08 51°26.207 2°48.615 8.9 264 7.9 98480 48
2012-04-19 08:48:13 51°26.208 2°48.615 10.4 305 7.9 98480 48
2012-04-19 08:48:18 51°26.208 2°48.615 8.3 263 7.9 98480 48
2012-04-19 08:48:23 51°26.208 2°48.616 10.1 306 7.9 98480 48
2012-04-19 08:48:28 51°26.209 2°48.617 9.6 265 7.9 98470 47
2012-04-19 08:48:33 51°26.21 2°48.617 9.4 307 7.9 98470 47
2012-04-19 08:48:38 51°26.21 2°48.618 10.1 264 7.9 98480 47
2012-04-19 08:48:43 51°26.21 2°48.618 9.3 306 7.9 98480 47
2012-04-19 08:48:48 51°26.211 2°48.619 7.7 265 7.9 98470 47
2012-04-19 08:48:53 51°26.211 2°48.62 6.5 306 7.9 98470 47
2012-04-19 08:48:58 51°26.211 2°48.62 4.3 265 7.9 98490 47
2012-04-19 08:49:03 51°26.212 2°48.621 9.8 303 7.9 98490 47
2012-04-19 08:49:07 51°26.213 2°48.621 8.7 266 7.9 98470 48
2012-04-19 08:49:13 51°26.213 2°48.622 5.1 282 7.9 98470 48
2012-04-19 08:49:18 51°26.214 2°48.623 7.4 265 7.9 98490 47
2012-04-19 08:49:23 51°26.214 2°48.623 10.3 304 7.9 98490 47
2012-04-19 08:49:27 51°26.215 2°48.624 4.4 263 7.9 98480 47
2012-04-19 08:49:33 51°26.215 2°48.625 9.3 305 7.9 98480 47
2012-04-19 08:49:38 51°26.216 2°48.625 9.9 263 7.9 98500 48
2012-04-19 08:49:43 51°26.216 2°48.626 8.1 305 7.9 98500 48
2012-04-19 08:49:48 51°26.216 2°48.627 4.7 266 7.9 98480 47
2012-04-19 08:49:53 51°26.217 2°48.628 9.3 308 7.9 98480 47
2012-04-19 08:49:58 51°26.217 2°48.629 7.3 266 7.9 98470 48
2012-04-19 08:50:03 51°26.218 2°48.63 10.1 58 7.9 98470 48
2012-04-19 08:50:08 51°26.218 2°48.63 7.3 266 7.9 98470 47
2012-04-19 08:50:13 51°26.218 2°48.631 4.1 303 7.9 98470 47
2012-04-19 08:50:18 51°26.219 2°48.632 9.4 266 7.9 98470 48
2012-04-19 08:50:23 51°26.219 2°48.633 6.3 304 7.9 98470 48
2012-04-19 08:50:28 51°26.219 2°48.633 7.2 266 7.9 98470 48
2012-04-19 08:50:33 51°26.219 2°48.634 7.4 299 7.9 98470 48
2012-04-19 08:50:38 51°26.22 2°48.635 7.5 267 7.9 98470 46
2012-04-19 08:50:43 51°26.22 2°48.635 6.6 310 7.9 98470 46
2012-04-19 08:50:48 51°26.22 2°48.636 4.4 266 7.9 98460 46
2012-04-19 08:50:53 51°26.22 2°48.636 7.7 304 7.9 98460 46
2012-04-19 08:50:58 51°26.221 2°48.637 7.7 269 7.9 98480 48
2012-04-19 08:51:03 51°26.221 2°48.638 7.3 305 7.9 98480 48
2012-04-19 08:51:07 51°26.222 2°48.638 5.2 265 7.9 98450 48
2012-04-19 08:51:13 51°26.222 2°48.639 7.6 280 7.9 98450 48
2012-04-19 08:51:18 51°26.223 2°48.64 9.2 264 7.9 98450 48
2012-04-19 08:51:23 51°26.223 2°48.64 7.5 307 7.9 98450 48
2012-04-19 08:51:28 51°26.224 2°48.641 4.6 268 7.9 98440 48
2012-04-19 08:51:33 51°26.224 2°48.642 5.2 301 7.9 98440 48
2012-04-19 08:51:38 51°26.224 2°48.643 4.7 267 7.9 98440 47
2012-04-19 08:51:43 51°26.224 2°48.643 4.3 266 7.9 98440 47
2012-04-19 08:51:48 51°26.225 2°48.644 4.6 270 7.9 98440 47
2012-04-19 08:51:53 51°26.225 2°48.644 10.1 306 7.9 98440 47
2012-04-19 08:51:58 51°26.226 2°48.645 5.3 269 7.9 98440 50
2012-04-19 08:52:03 51°26.226 2°48.646 10.8 326 7.9 98440 50
2012-04-19 08:52:08 51°26.226 2°48.647 10.7 268 7.9 98440 47
2012-04-19 08:52:13 51°26.227 2°48.648 5.5 308 7.9 98440 47
2012-04-19 08:52:18 51°26.227 2°48.648 4.9 269 7.9 98450 48
2012-04-19 08:52:23 51°26.228 2°48.649 4.2 306 7.9 98450 48
2012-04-19 08:52:28 51°26.228 2°48.65 5.1 266 7.9 98450 47
2012-04-19 08:52:33 51°26.228 2°48.651 8.9 305 7.9 98450 47
2012-04-19 08:52:38 51°26.228 2°48.651 8.9 270 7.9 98450 48
2012-04-19 08:52:43 51°26.228 2°48.652 5.2 269 7.9 98450 48
2012-04-19 08:52:48 51°26.229 2°48.653 8.5 269 7.9 98450 46
2012-04-19 08:52:53 51°26.229 2°48.654 10.2 311 7.9 98450 46
2012-04-19 08:52:58 51°26.229 2°48.655 5 269 7.9 98450 47
2012-04-19 08:53:03 51°26.23 2°48.655 9.5 298 7.9 98450 47
2012-04-19 08:53:08 51°26.23 2°48.656 4.4 266 7.9 98450 48
2012-04-19 08:53:13 51°26.23 2°48.657 4.8 283 7.9 98450 48
2012-04-19 08:53:18 51°26.231 2°48.657 4 267 7.9 98440 48
2012-04-19 08:53:23 51°26.231 2°48.658 7.2 307 7.9 98440 48
2012-04-19 08:53:27 51°26.231 2°48.659 4.2 266 7.9 98450 48
2012-04-19 08:53:33 51°26.232 2°48.66 10.8 301 7.9 98450 48
2012-04-19 08:53:38 51°26.232 2°48.66 3.9 270 7.9 98450 48
2012-04-19 08:53:43 51°26.233 2°48.661 8.6 306 7.9 98450 48
2012-04-19 08:53:48 51°26.233 2°48.662 7.3 266 7.9 98450 47
2012-04-19 08:53:53 51°26.234 2°48.663 9.4 309 7.9 98450 47
2012-04-19 08:53:58 51°26.234 2°48.663 8.4 267 7.9 98450 48
2012-04-19 08:54:03 51°26.234 2°48.664 11.6 305 7.9 98450 48
2012-04-19 08:54:08 51°26.235 2°48.665 8.3 266 7.9 98450 47
2012-04-19 08:54:13 51°26.235 2°48.666 4.2 305 7.9 98450 47
2012-04-19 08:54:18 51°26.236 2°48.666 6.7 265 7.9 98450 46
2012-04-19 08:54:23 51°26.236 2°48.667 7.1 304 7.9 98450 46
2012-04-19 08:54:28 51°26.236 2°48.668 10.4 264 7.9 98460 48
2012-04-19 08:54:33 51°26.237 2°48.669 10.1 306 7.9 98460 48
2012-04-19 08:54:38 51°26.237 2°48.669 6.3 264 7.9 98450 47
2012-04-19 08:54:43 51°26.237 2°48.67 3.5 305 7.9 98450 47
2012-04-19 08:54:48 51°26.238 2°48.67 8.4 265 7.9 98440 48
2012-04-19 08:54:53 51°26.238 2°48.671 4.4 310 7.9 98440 48
2012-04-19 08:54:58 51°26.239 2°48.672 10.4 266 7.9 98450 48
2012-04-19 08:55:03 51°26.239 2°48.672 4 306 7.9 98450 48
2012-04-19 08:55:08 51°26.24 2°48.673 4 267 7.9 98440 47
2012-04-19 08:55:13 51°26.241 2°48.674 5.6 307 7.9 98440 47
2012-04-19 08:55:18 51°26.241 2°48.675 11.5 264 7.9 98440 48
2012-04-19 08:55:23 51°26.241 2°48.675 7.5 306 7.9 98440 48
2012-04-19 08:55:28 51°26.242 2°48.676 9.7 265 7.9 98460 48
2012-04-19 08:55:33 51°26.242 2°48.677 5.5 302 7.9 98460 48
2012-04-19 08:55:38 51°26.243 2°48.678 8.6 264 7.9 98460 48
2012-04-19 08:55:43 51°26.243 2°48.678 4.4 302 7.9 98460 48
2012-04-19 08:55:48 51°26.244 2°48.679 7.6 266 7.9 98450 48
2012-04-19 08:55:54 51°26.244 2°48.68 6.2 306 7.9 98450 48
2012-04-19 08:55:58 51°26.245 2°48.681 4.3 265 7.9 98460 48
2012-04-19 08:56:03 51°26.245 2°48.682 2.8 303 7.9 98460 48
2012-04-19 08:56:08 51°26.246 2°48.682 7.4 266 7.9 98450 47
2012-04-19 08:56:13 51°26.247 2°48.683 7.8 304 7.9 98450 47
2012-04-19 08:56:18 51°26.247 2°48.684 5.7 267 7.9 98450 48
2012-04-19 08:56:23 51°26.248 2°48.685 3.8 304 7.9 98450 48
2012-04-19 08:56:28 51°26.248 2°48.686 3.5 265 7.9 98450 48
2012-04-19 08:56:33 51°26.249 2°48.687 9 305 7.9 98450 48
2012-04-19 08:56:39 51°26.249 2°48.688 9.7 262 7.9 98450 48
2012-04-19 08:56:43 51°26.25 2°48.689 7 309 7.9 98450 48
2012-04-19 08:56:48 51°26.25 2°48.689 7.2 266 7.9 98460 48
2012-04-19 08:56:53 51°26.251 2°48.69 8.1 305 7.9 98460 48
2012-04-19 08:56:58 51°26.251 2°48.691 6.9 265 7.9 98460 46
2012-04-19 08:57:03 51°26.251 2°48.692 8.6 305 7.9 98460 46
2012-04-19 08:57:08 51°26.252 2°48.693 9.7 262 7.9 98450 48
2012-04-19 08:57:13 51°26.252 2°48.694 4.1 280 7.9 98450 48
2012-04-19 08:57:18 51°26.253 2°48.695 4.2 265 7.9 98450 48
2012-04-19 08:57:23 51°26.253 2°48.696 7.8 306 7.9 98450 48
2012-04-19 08:57:28 51°26.253 2°48.696 7.8 264 7.9 98450 48
2012-04-19 08:57:33 51°26.254 2°48.698 8 310 7.9 98450 48
2012-04-19 08:57:38 51°26.254 2°48.698 9.1 264 7.9 98460 48
2012-04-19 08:57:43 51°26.255 2°48.699 6.7 303 7.9 98460 48
2012-04-19 08:57:47 51°26.255 2°48.7 8.2 263 7.9 98450 47
2012-04-19 08:57:53 51°26.256 2°48.701 8 303 7.9 98450 47
2012-04-19 08:57:58 51°26.256 2°48.702 3.8 266 7.9 98450 48
2012-04-19 08:58:03 51°26.257 2°48.703 4.5 309 7.9 98450 48
2012-04-19 08:58:07 51°26.257 2°48.704 10.2 265 7.9 98450 47
2012-04-19 08:58:13 51°26.258 2°48.705 7.3 304 7.9 98450 47
2012-04-19 08:58:18 51°26.258 2°48.707 5 265 7.9 98450 46
2012-04-19 08:58:23 51°26.259 2°48.708 4.1 304 7.9 98450 46
2012-04-19 08:58:28 51°26.259 2°48.709 9.8 268 7.9 98450 46
2012-04-19 08:58:33 51°26.26 2°48.71 3.1 306 7.9 98450 46
2012-04-19 08:58:38 51°26.26 2°48.711 4.2 266 7.9 98450 47
2012-04-19 08:58:43 51°26.261 2°48.712 3.8 304 7.9 98450 47
2012-04-19 08:58:48 51°26.262 2°48.713 4 268 7.9 98450 48
2012-04-19 08:58:53 51°26.263 2°48.714 10.3 306 7.9 98450 48
2012-04-19 08:58:58 51°26.263 2°48.715 3.8 266 7.9 98440 48
2012-04-19 08:59:03 51°26.264 2°48.716 7.1 308 7.9 98440 48
2012-04-19 08:59:08 51°26.264 2°48.717 9.2 264 7.9 98450 48
2012-04-19 08:59:13 51°26.265 2°48.718 4.3 285 7.9 98450 48
2012-04-19 08:59:18 51°26.265 2°48.719 9.1 267 7.9 98460 47
2012-04-19 08:59:23 51°26.266 2°48.72 8 310 7.9 98460 47
2012-04-19 08:59:28 51°26.267 2°48.721 8.2 266 7.9 98450 48
2012-04-19 08:59:33 51°26.267 2°48.722 3.9 308 7.9 98450 48
2012-04-19 08:59:38 51°26.268 2°48.723 4.4 266 7.9 98450 47
2012-04-19 08:59:43 51°26.268 2°48.724 4.4 305 7.9 98450 47
2012-04-19 08:59:48 51°26.268 2°48.725 8.6 268 7.9 98450 48
2012-04-19 08:59:53 51°26.269 2°48.726 7.3 305 7.9 98450 48
2012-04-19 08:59:58 51°26.27 2°48.728 6.7 265 7.9 98450 47
2012-04-19 09:00:03 51°26.27 2°48.729 7.5 307 7.9 98450 47
2012-04-19 09:00:08 51°26.271 2°48.729 7.8 266 7.9 98450 48
2012-04-19 09:00:13 51°26.271 2°48.731 3.7 305 7.9 98450 48
2012-04-19 09:00:18 51°26.271 2°48.732 4.8 263 7.9 98440 47
2012-04-19 09:00:23 51°26.272 2°48.733 4.3 305 7.9 98440 47
2012-04-19 09:00:27 51°26.272 2°48.734 7.2 265 7.9 98450 48
2012-04-19 09:00:33 51°26.273 2°48.735 7.8 306 7.9 98450 48
2012-04-19 09:00:38 51°26.273 2°48.737 8 267 7.9 98450 48
2012-04-19 09:00:43 51°26.273 2°48.738 6.4 308 7.9 98450 48
2012-04-19 09:00:48 51°26.274 2°48.739 7.1 267 7.9 98460 47
2012-04-19 09:00:53 51°26.275 2°48.74 8 304 7.9 98460 47
2012-04-19 09:00:58 51°26.275 2°48.741 4.5 269 7.9 98460 47
2012-04-19 09:01:03 51°26.276 2°48.742 9.3 310 7.9 98460 47
2012-04-19 09:01:08 51°26.276 2°48.744 8.8 270 7.9 98460 48
2012-04-19 09:01:13 51°26.276 2°48.745 8.6 311 7.9 98460 48
2012-04-19 09:01:18 51°26.277 2°48.746 7.8 266 7.9 98460 48
2012-04-19 09:01:23 51°26.277 2°48.747 7.7 305 7.9 98460 48
2012-04-19 09:01:28 51°26.278 2°48.748 6.9 268 7.9 98450 48
2012-04-19 09:01:33 51°26.278 2°48.749 8.5 305 7.9 98450 48
2012-04-19 09:01:38 51°26.279 2°48.75 7.2 267 7.9 98450 47
2012-04-19 09:01:43 51°26.279 2°48.751 7.7 312 7.9 98450 47
2012-04-19 09:01:48 51°26.28 2°48.753 5.6 266 7.9 98450 48
2012-04-19 09:01:53 51°26.28 2°48.754 7.5 312 7.9 98450 48
2012-04-19 09:01:58 51°26.281 2°48.755 4.7 269 7.9 98440 48
2012-04-19 09:02:03 51°26.281 2°48.755 9.6 312 7.9 98440 48
2012-04-19 09:02:08 51°26.282 2°48.757 3.9 266 7.9 98450 48
2012-04-19 09:02:13 51°26.282 2°48.758 4.9 307 7.9 98450 48
2012-04-19 09:02:18 51°26.283 2°48.759 4.1 267 7.9 98450 47
2012-04-19 09:02:23 51°26.283 2°48.76 3.9 305 7.9 98450 47
2012-04-19 09:02:27 51°26.284 2°48.76 3.9 266 7.9 98450 48
2012-04-19 09:02:33 51°26.284 2°48.762 7.4 306 7.9 98450 48
2012-04-19 09:02:38 51°26.285 2°48.763 6.4 266 7.9 98460 48
2012-04-19 09:02:43 51°26.285 2°48.764 7.1 303 7.9 98460 48
2012-04-19 09:02:48 51°26.286 2°48.765 8.1 266 7.9 98450 48
2012-04-19 09:02:54 51°26.287 2°48.766 5.1 307 7.9 98450 48
2012-04-19 09:02:58 51°26.287 2°48.767 6.5 264 7.9 98450 48
2012-04-19 09:03:03 51°26.288 2°48.767 4.5 305 7.9 98450 48
2012-04-19 09:03:08 51°26.288 2°48.768 5.4 266 7.9 98440 48
2012-04-19 09:03:13 51°26.289 2°48.769 9.1 281 7.9 98440 48
2012-04-19 09:03:18 51°26.289 2°48.771 8.4 262 7.9 98450 48
2012-04-19 09:03:23 51°26.29 2°48.771 7.4 310 7.9 98450 48
2012-04-19 09:03:28 51°26.29 2°48.773 6.4 266 7.9 98450 48
2012-04-19 09:03:33 51°26.291 2°48.774 9 304 7.9 98450 48
2012-04-19 09:03:38 51°26.292 2°48.774 11.5 264 7.9 98450 47
2012-04-19 09:03:43 51°26.292 2°48.776 6.6 304 7.9 98450 47
2012-04-19 09:03:48 51°26.292 2°48.777 6.3 267 8 98450 48
2012-04-19 09:03:53 51°26.293 2°48.778 6.7 309 8 98450 48
2012-04-19 09:03:58 51°26.293 2°48.779 6.2 267 8 98460 48
2012-04-19 09:04:03 51°26.294 2°48.78 6.6 313 8 98460 48
2012-04-19 09:04:08 51°26.295 2°48.781 9.1 43 8 98460 47
2012-04-19 09:04:13 51°26.296 2°48.782 5.5 305 8 98460 47
2012-04-19 09:04:18 51°26.296 2°48.783 7.5 267 8 98450 48
2012-04-19 09:04:23 51°26.296 2°48.784 6.9 304 8 98450 48
2012-04-19 09:04:28 51°26.296 2°48.785 7.6 266 8 98460 47
2012-04-19 09:04:33 51°26.297 2°48.786 7.7 311 8 98460 47
2012-04-19 09:04:38 51°26.298 2°48.788 6.3 264 8 98460 47
2012-04-19 09:04:43 51°26.298 2°48.789 8.9 310 8 98460 47
2012-04-19 09:04:48 51°26.299 2°48.79 7 266 8 98460 47
2012-04-19 09:04:53 51°26.3 2°48.792 4.3 305 8 98460 47
2012-04-19 09:04:58 51°26.3 2°48.793 4.3 265 8 98460 45
2012-04-19 09:05:03 51°26.301 2°48.794 4.3 306 8 98460 45
2012-04-19 09:05:08 51°26.301 2°48.795 4.4 267 8 98450 48
2012-04-19 09:05:13 51°26.302 2°48.797 4.7 282 8 98450 48
2012-04-19 09:05:18 51°26.303 2°48.798 7.7 268 7.9 98460 48
2012-04-19 09:05:23 51°26.304 2°48.8 4.1 303 7.9 98460 48
2012-04-19 09:05:27 51°26.304 2°48.801 8.8 264 7.9 98460 48
2012-04-19 09:05:33 51°26.304 2°48.803 8.8 305 7.9 98460 48
2012-04-19 09:05:38 51°26.305 2°48.804 7.5 270 7.9 98460 48
2012-04-19 09:05:43 51°26.305 2°48.805 8.2 306 7.9 98460 48
2012-04-19 09:05:48 51°26.306 2°48.807 5.8 265 7.9 98460 48
2012-04-19 09:05:53 51°26.306 2°48.808 6.7 310 7.9 98460 48
2012-04-19 09:05:58 51°26.307 2°48.81 7.6 268 7.9 98450 47
2012-04-19 09:06:03 51°26.307 2°48.811 4.5 308 7.9 98450 47
2012-04-19 09:06:08 51°26.307 2°48.812 10 269 8 98450 49
2012-04-19 09:06:13 51°26.308 2°48.813 3.9 306 8 98450 49
2012-04-19 09:06:18 51°26.308 2°48.815 9.3 270 8 98450 47
2012-04-19 09:06:23 51°26.309 2°48.816 6.6 305 8 98450 47
2012-04-19 09:06:28 51°26.31 2°48.818 7.2 267 7.9 98460 46
2012-04-19 09:06:33 51°26.31 2°48.819 5.8 304 7.9 98460 46
2012-04-19 09:06:38 51°26.311 2°48.82 8.7 268 7.9 98460 47
2012-04-19 09:06:43 51°26.311 2°48.822 4.1 304 7.9 98460 47
2012-04-19 09:06:47 51°26.312 2°48.823 10.2 266 7.9 98460 48
2012-04-19 09:06:53 51°26.312 2°48.825 4.5 305 7.9 98460 48
2012-04-19 09:06:58 51°26.312 2°48.827 7.4 265 7.9 98460 47
2012-04-19 09:07:03 51°26.313 2°48.828 4.9 305 7.9 98460 47
2012-04-19 09:07:08 51°26.313 2°48.83 5.8 264 8 98460 48
2012-04-19 09:07:13 51°26.313 2°48.831 7.7 306 8 98460 48
2012-04-19 09:07:18 51°26.314 2°48.833 6.8 265 8 98460 47
2012-04-19 09:07:23 51°26.314 2°48.834 8.3 309 8 98460 47
2012-04-19 09:07:28 51°26.315 2°48.836 6.4 266 8 98460 48
2012-04-19 09:07:33 51°26.316 2°48.838 6.8 305 8 98460 48
2012-04-19 09:07:38 51°26.316 2°48.839 9.6 268 7.9 98460 47
2012-04-19 09:07:43 51°26.316 2°48.841 8.5 302 7.9 98460 47
2012-04-19 09:07:47 51°26.317 2°48.842 8.6 270 8 98450 48
2012-04-19 09:07:53 51°26.317 2°48.844 4.1 306 8 98450 48
2012-04-19 09:07:58 51°26.317 2°48.846 8.4 267 8 98450 48
2012-04-19 09:08:03 51°26.318 2°48.848 9.3 306 8 98450 48
2012-04-19 09:08:08 51°26.318 2°48.85 4.8 270 8 98450 47
2012-04-19 09:08:13 51°26.319 2°48.851 10.4 306 8 98450 47
2012-04-19 09:08:18 51°26.319 2°48.853 4.3 270 8 98450 48
2012-04-19 09:08:23 51°26.32 2°48.854 9.6 301 8 98450 48
2012-04-19 09:08:28 51°26.32 2°48.856 5.4 270 8 98460 47
2012-04-19 09:08:33 51°26.32 2°48.857 4.5 305 8 98460 47
2012-04-19 09:08:38 51°26.321 2°48.859 8 267 8 98460 46
2012-04-19 09:08:43 51°26.322 2°48.86 6 306 8 98460 46
2012-04-19 09:08:48 51°26.322 2°48.862 5.7 265 8 98460 48
2012-04-19 09:08:53 51°26.322 2°48.864 4.4 304 8 98460 48
2012-04-19 09:08:58 51°26.323 2°48.865 8.3 270 7.9 98450 49
2012-04-19 09:09:03 51°26.324 2°48.867 8.2 309 7.9 98450 49
2012-04-19 09:09:07 51°26.324 2°48.868 4.4 24 7.9 98450 47
2012-04-19 09:09:13 51°26.325 2°48.87 5.4 288 7.9 98450 47
2012-04-19 09:09:18 51°26.326 2°48.872 10.1 21 7.9 98450 47
2012-04-19 09:09:23 51°26.327 2°48.873 5.7 55 7.9 98450 47
2012-04-19 09:09:28 51°26.327 2°48.874 11.9 16 7.9 98460 50
2012-04-19 09:09:33 51°26.327 2°48.876 9.8 59 7.9 98460 50
2012-04-19 09:09:38 51°26.327 2°48.877 5 270 7.9 98460 50
2012-04-19 09:09:43 51°26.328 2°48.878 5.4 301 7.9 98460 50
2012-04-19 09:09:48 51°26.329 2°48.879 10.4 27 7.9 98460 47
2012-04-19 09:09:53 51°26.329 2°48.881 7 306 7.9 98460 47
2012-04-19 09:09:58 51°26.33 2°48.882 10.2 270 7.9 98450 48
2012-04-19 09:10:03 51°26.33 2°48.883 7.7 306 7.9 98450 48
2012-04-19 09:10:08 51°26.331 2°48.885 4.7 268 7.9 98450 48
2012-04-19 09:10:13 51°26.332 2°48.886 9.2 286 7.9 98450 48
2012-04-19 09:10:18 51°26.333 2°48.887 8 269 7.9 98450 47
2012-04-19 09:10:23 51°26.333 2°48.889 7.6 305 7.9 98450 47
2012-04-19 09:10:28 51°26.334 2°48.89 4.3 266 7.9 98460 48
2012-04-19 09:10:33 51°26.335 2°48.891 8.9 305 7.9 98460 48
2012-04-19 09:10:38 51°26.336 2°48.893 9.8 264 7.9 98460 48
2012-04-19 09:10:43 51°26.336 2°48.894 4.4 308 7.9 98460 48
2012-04-19 09:10:48 51°26.337 2°48.895 11.7 263 7.9 98450 48
2012-04-19 09:10:53 51°26.338 2°48.896 4.3 306 7.9 98450 48
2012-04-19 09:10:58 51°26.338 2°48.898 8.2 266 7.9 98460 48
2012-04-19 09:11:03 51°26.339 2°48.899 4.9 305 7.9 98460 48
2012-04-19 09:11:08 51°26.34 2°48.9 4.4 263 7.9 98460 47
2012-04-19 09:11:13 51°26.341 2°48.902 10.6 305 7.9 98460 47
2012-04-19 09:11:18 51°26.341 2°48.903 5.2 265 7.9 98460 47
2012-04-19 09:11:23 51°26.342 2°48.904 4.4 309 7.9 98460 47
2012-04-19 09:11:27 51°26.343 2°48.905 12.7 263 7.9 98460 47
2012-04-19 09:11:33 51°26.343 2°48.907 6.5 305 7.9 98460 47
2012-04-19 09:11:38 51°26.344 2°48.909 4.4 264 7.9 98460 46
2012-04-19 09:11:43 51°26.345 2°48.91 9.5 304 7.9 98460 46
2012-04-19 09:11:48 51°26.345 2°48.912 7.7 264 7.9 98460 47
2012-04-19 09:11:53 51°26.346 2°48.913 8.4 306 7.9 98460 47
2012-04-19 09:11:58 51°26.347 2°48.915 9.6 265 7.9 98460 48
2012-04-19 09:12:03 51°26.347 2°48.917 4.6 306 7.9 98460 48
2012-04-19 09:12:08 51°26.348 2°48.918 9.6 265 7.9 98460 47
2012-04-19 09:12:13 51°26.349 2°48.92 3.9 285 7.9 98460 47
2012-04-19 09:12:18 51°26.349 2°48.922 7.5 265 7.9 98460 46
2012-04-19 09:12:23 51°26.35 2°48.924 7.1 303 7.9 98460 46
2012-04-19 09:12:28 51°26.351 2°48.925 7.5 265 7.9 98460 46
2012-04-19 09:12:33 51°26.351 2°48.927 3.9 308 7.9 98460 46
2012-04-19 09:12:38 51°26.352 2°48.929 7.9 265 7.9 98460 47
2012-04-19 09:12:43 51°26.352 2°48.931 9 305 7.9 98460 47
2012-04-19 09:12:48 51°26.353 2°48.932 4.4 264 7.9 98450 47
2012-04-19 09:12:53 51°26.354 2°48.934 10.2 305 7.9 98450 47
2012-04-19 09:12:58 51°26.354 2°48.936 8.4 268 7.9 98460 46
2012-04-19 09:13:03 51°26.355 2°48.938 4.5 308 7.9 98460 46
2012-04-19 09:13:08 51°26.355 2°48.94 8.6 268 7.9 98450 47
2012-04-19 09:13:13 51°26.355 2°48.942 7.7 305 7.9 98450 47
2012-04-19 09:13:18 51°26.356 2°48.943 7.8 268 7.9 98460 46
2012-04-19 09:13:23 51°26.357 2°48.945 9.1 303 7.9 98460 46
2012-04-19 09:13:28 51°26.357 2°48.946 4.8 270 8 98460 45
2012-04-19 09:13:33 51°26.358 2°48.948 6.5 305 8 98460 45
2012-04-19 09:13:38 51°26.359 2°48.95 8.4 270 8 98450 48
2012-04-19 09:13:43 51°26.359 2°48.952 9.4 307 8 98450 48
2012-04-19 09:13:47 51°26.36 2°48.953 7.9 267 8 98460 48
2012-04-19 09:13:53 51°26.361 2°48.955 8 303 8 98460 48
2012-04-19 09:13:58 51°26.361 2°48.957 8.7 268 8 98460 47
2012-04-19 09:14:03 51°26.362 2°48.958 8.5 310 8 98460 47
2012-04-19 09:14:08 51°26.363 2°48.96 5.6 265 8 98460 47
2012-04-19 09:14:13 51°26.363 2°48.962 7.6 281 8 98460 47
2012-04-19 09:14:18 51°26.364 2°48.963 4.4 268 8 98460 47
2012-04-19 09:14:23 51°26.365 2°48.965 4.1 305 8 98460 47
2012-04-19 09:14:28 51°26.365 2°48.967 6.7 266 8 98470 47
2012-04-19 09:14:33 51°26.366 2°48.969 5.5 303 8 98470 47
2012-04-19 09:14:38 51°26.367 2°48.97 5 269 8 98460 47
2012-04-19 09:14:43 51°26.368 2°48.972 5 304 8 98460 47
2012-04-19 09:14:48 51°26.368 2°48.974 4.9 270 8 98460 48
2012-04-19 09:14:53 51°26.369 2°48.975 4.2 305 8 98460 48
2012-04-19 09:14:58 51°26.37 2°48.977 4 269 8 98470 46
2012-04-19 09:15:03 51°26.37 2°48.979 4.4 305 8 98470 46
2012-04-19 09:15:08 51°26.371 2°48.981 7.1 265 7.9 98470 46
2012-04-19 09:15:13 51°26.372 2°48.982 8.5 311 7.9 98470 46
2012-04-19 09:15:18 51°26.372 2°48.984 6.4 266 7.9 98460 47
2012-04-19 09:15:23 51°26.373 2°48.986 7.1 305 7.9 98460 47
2012-04-19 09:15:28 51°26.374 2°48.987 9.5 268 8 98460 46
2012-04-19 09:15:33 51°26.375 2°48.989 6.6 309 8 98460 46
2012-04-19 09:15:38 51°26.376 2°48.99 6.7 268 8 98470 47
2012-04-19 09:15:43 51°26.376 2°48.991 6.7 304 8 98470 47
2012-04-19 09:15:48 51°26.377 2°48.993 8.9 267 8 98460 48
2012-04-19 09:15:53 51°26.377 2°48.994 7.5 305 8 98460 48
2012-04-19 09:15:58 51°26.378 2°48.996 8.5 270 8 98460 48
2012-04-19 09:16:03 51°26.379 2°48.997 9.3 306 8 98460 48
2012-04-19 09:16:08 51°26.38 2°48.999 4.8 270 8 98470 48
2012-04-19 09:16:13 51°26.38 2°49 8.8 279 8 98470 48
2012-04-19 09:16:18 51°26.381 2°49.002 9.6 265 8 98460 47
2012-04-19 09:16:23 51°26.382 2°49.003 10.4 56 8 98460 47
2012-04-19 09:16:28 51°26.382 2°49.004 8.4 266 8 98470 48
2012-04-19 09:16:33 51°26.383 2°49.006 7.1 305 8 98470 48
2012-04-19 09:16:38 51°26.384 2°49.007 4.3 267 8 98470 47
2012-04-19 09:16:43 51°26.385 2°49.008 7.3 302 8 98470 47
2012-04-19 09:16:47 51°26.386 2°49.01 8.9 269 8 98470 47
2012-04-19 09:16:53 51°26.387 2°49.011 6.7 305 8 98470 47
2012-04-19 09:16:58 51°26.387 2°49.012 9.1 264 8 98470 46
2012-04-19 09:17:03 51°26.388 2°49.014 9.2 311 8 98470 46
2012-04-19 09:17:08 51°26.389 2°49.015 5.8 266 8 98470 47
2012-04-19 09:17:13 51°26.39 2°49.016 4.8 306 8 98470 47
2012-04-19 09:17:18 51°26.39 2°49.017 10 261 8 98470 47
2012-04-19 09:17:23 51°26.391 2°49.019 10.4 309 8 98470 47
2012-04-19 09:17:28 51°26.392 2°49.02 4.1 264 8 98460 47
2012-04-19 09:17:33 51°26.393 2°49.022 8.8 305 8 98460 47
2012-04-19 09:17:38 51°26.394 2°49.023 8.7 262 8 98480 47
2012-04-19 09:17:43 51°26.395 2°49.025 7.1 306 8 98480 47
2012-04-19 09:17:48 51°26.395 2°49.026 8.5 263 8 98460 47
2012-04-19 09:17:53 51°26.396 2°49.028 9.1 307 8 98460 47
2012-04-19 09:17:58 51°26.397 2°49.03 8.4 264 8 98470 47
2012-04-19 09:18:03 51°26.398 2°49.031 8.9 304 8 98470 47
2012-04-19 09:18:08 51°26.398 2°49.033 9.7 262 8 98460 48
2012-04-19 09:18:14 51°26.399 2°49.035 6.2 286 8 98460 48
2012-04-19 09:18:18 51°26.4 2°49.036 8.4 265 8 98470 47
2012-04-19 09:18:23 51°26.401 2°49.038 4.4 304 8 98470 47
2012-04-19 09:18:28 51°26.401 2°49.04 4.4 266 8 98480 47
2012-04-19 09:18:33 51°26.403 2°49.042 9.2 305 8 98480 47
2012-04-19 09:18:38 51°26.403 2°49.043 9.5 265 8 98470 48
2012-04-19 09:18:43 51°26.404 2°49.044 4.2 304 8 98470 48
2012-04-19 09:18:48 51°26.405 2°49.044 10.4 263 8 98480 47
2012-04-19 09:18:53 51°26.406 2°49.044 13.1 307 8 98480 47
2012-04-19 09:18:58 51°26.408 2°49.044 12 262 8 98470 46
2012-04-19 09:19:03 51°26.409 2°49.044 6.4 305 8 98470 46
2012-04-19 09:19:07 51°26.41 2°49.043 11.2 257 8 98470 47
2012-04-19 09:19:13 51°26.411 2°49.042 5.3 308 8 98470 47
2012-04-19 09:19:18 51°26.412 2°49.04 11.8 258 8 98470 48
2012-04-19 09:19:23 51°26.413 2°49.039 10 307 8 98470 48
2012-04-19 09:19:28 51°26.414 2°49.038 12.2 257 8 98470 48
2012-04-19 09:19:33 51°26.415 2°49.036 9 305 8 98470 48
2012-04-19 09:19:38 51°26.416 2°49.034 4.4 253 8 98470 47
2012-04-19 09:19:43 51°26.417 2°49.032 8.6 311 8 98470 47
2012-04-19 09:19:48 51°26.418 2°49.029 10.9 249 8 98470 47
2012-04-19 09:19:53 51°26.418 2°49.028 10.1 306 8 98470 47
2012-04-19 09:19:58 51°26.418 2°49.026 6.3 249 8 98460 48
2012-04-19 09:20:03 51°26.419 2°49.023 13.1 311 8 98460 48
2012-04-19 09:20:08 51°26.419 2°49.021 10.5 19 8.1 98470 47
2012-04-19 09:20:13 51°26.419 2°49.018 9.2 286 8.1 98470 47
2012-04-19 09:20:18 51°26.419 2°49.016 9.8 21 8 98460 47
2012-04-19 09:20:23 51°26.419 2°49.013 12.9 311 8 98460 47
2012-04-19 09:20:27 51°26.419 2°49.011 4.5 18 8 98450 47
2012-04-19 09:20:33 51°26.419 2°49.008 13.4 306 8 98450 47
2012-04-19 09:20:38 51°26.418 2°49.005 12.4 22 8.1 98450 47
2012-04-19 09:20:43 51°26.418 2°49.002 7.4 306 8.1 98450 47
2012-04-19 09:20:48 51°26.417 2°48.999 10.9 27 8.1 98450 48
2012-04-19 09:20:53 51°26.417 2°48.996 11.7 305 8.1 98450 48
2012-04-19 09:20:58 51°26.416 2°48.992 12.1 24 8.1 98460 46
2012-04-19 09:21:03 51°26.415 2°48.989 6.6 304 8.1 98460 46
2012-04-19 09:21:08 51°26.414 2°48.984 12.2 21 8.1 98450 47
2012-04-19 09:21:13 51°26.413 2°48.981 4.4 284 8.1 98450 47
2012-04-19 09:21:18 51°26.412 2°48.976 15.3 23 8 98440 47
2012-04-19 09:21:23 51°26.411 2°48.971 13.3 307 8 98440 47
2012-04-19 09:21:28 51°26.409 2°48.965 12.8 24 8 98440 47
2012-04-19 09:21:33 51°26.408 2°48.96 17.9 305 8 98440 47
2012-04-19 09:21:38 51°26.406 2°48.954 15.7 26 8 98440 47
2012-04-19 09:21:43 51°26.405 2°48.948 17.6 305 8 98440 47
2012-04-19 09:21:48 51°26.403 2°48.941 14.2 22 8 98430 47
2012-04-19 09:21:53 51°26.402 2°48.935 13.8 309 8 98430 47
2012-04-19 09:21:58 51°26.4 2°48.928 12.9 20 8 98440 47
2012-04-19 09:22:03 51°26.399 2°48.922 6.9 304 8 98440 47
2012-04-19 09:22:08 51°26.397 2°48.915 13.3 21 8 98430 47
2012-04-19 09:22:13 51°26.396 2°48.909 12.8 303 8 98430 47
2012-04-19 09:22:18 51°26.395 2°48.902 13.4 22 8 98430 47
2012-04-19 09:22:23 51°26.393 2°48.895 12.9 303 8 98430 47
2012-04-19 09:22:28 51°26.392 2°48.888 12.9 25 8 98440 47
2012-04-19 09:22:33 51°26.39 2°48.881 13.2 310 8 98440 47
2012-04-19 09:22:38 51°26.389 2°48.875 11.6 22 8 98440 48
2012-04-19 09:22:43 51°26.387 2°48.867 5.7 304 8 98440 48
2012-04-19 09:22:47 51°26.386 2°48.862 6.5 25 8 98440 47
2012-04-19 09:22:53 51°26.383 2°48.854 10.9 310 8 98440 47
2012-04-19 09:22:58 51°26.381 2°48.846 9.1 21 8 98440 47
2012-04-19 09:23:03 51°26.379 2°48.839 10.1 303 8 98440 47
2012-04-19 09:23:08 51°26.377 2°48.831 11.2 28 8 98430 47
2012-04-19 09:23:13 51°26.375 2°48.824 12.6 282 8 98430 47
2012-04-19 09:23:18 51°26.372 2°48.817 5.5 25 8 98450 47
2012-04-19 09:23:23 51°26.37 2°48.809 6.5 303 8 98450 47
2012-04-19 09:23:28 51°26.367 2°48.802 11.6 24 8.1 98450 47
2012-04-19 09:23:33 51°26.366 2°48.795 11.8 310 8.1 98450 47
2012-04-19 09:23:38 51°26.364 2°48.789 10.4 23 8.1 98450 46
2012-04-19 09:23:43 51°26.361 2°48.782 12.1 311 8.1 98450 46
2012-04-19 09:23:48 51°26.359 2°48.775 10.1 25 8.1 98450 48
2012-04-19 09:23:53 51°26.357 2°48.768 10.8 303 8.1 98450 48
2012-04-19 09:23:58 51°26.355 2°48.76 12.1 25 8.1 98430 47
2012-04-19 09:24:03 51°26.352 2°48.753 14.4 309 8.1 98430 47
2012-04-19 09:24:08 51°26.35 2°48.746 12 23 8.1 98450 48
2012-04-19 09:24:13 51°26.348 2°48.739 14.5 307 8.1 98450 48
2012-04-19 09:24:18 51°26.346 2°48.732 6.5 24 8.1 98450 47
2012-04-19 09:24:23 51°26.344 2°48.724 15.6 310 8.1 98450 47
2012-04-19 09:24:28 51°26.341 2°48.716 4.2 24 8.1 98440 48
2012-04-19 09:24:33 51°26.339 2°48.708 13.5 307 8.1 98440 48
2012-04-19 09:24:38 51°26.335 2°48.699 14.3 23 8.1 98450 48
2012-04-19 09:24:43 51°26.332 2°48.689 13.7 304 8.1 98450 48
2012-04-19 09:24:47 51°26.329 2°48.681 12.2 22 8.1 98450 47
2012-04-19 09:24:53 51°26.325 2°48.669 14.1 306 8.1 98450 47
2012-04-19 09:24:58 51°26.321 2°48.659 14.9 20 8.1 98450 47
2012-04-19 09:25:03 51°26.316 2°48.648 13.3 310 8.1 98450 47
2012-04-19 09:25:08 51°26.311 2°48.636 14.8 25 8 98430 47
2012-04-19 09:25:13 51°26.306 2°48.623 13.9 306 8 98430 47
2012-04-19 09:25:18 51°26.3 2°48.61 15.8 25 8 98420 47
2012-04-19 09:25:23 51°26.294 2°48.595 16.6 304 8 98420 47
2012-04-19 09:25:28 51°26.288 2°48.579 14.7 316 8 98430 47
2012-04-19 09:25:33 51°26.282 2°48.563 16.7 306 8 98430 47
2012-04-19 09:25:38 51°26.275 2°48.546 15.4 23 8 98430 47
2012-04-19 09:25:43 51°26.268 2°48.528 7.5 305 8 98430 47
2012-04-19 09:25:48 51°26.26 2°48.51 4.4 25 8 98450 47
2012-04-19 09:25:53 51°26.253 2°48.492 15.9 308 8 98450 47
2012-04-19 09:25:58 51°26.245 2°48.473 13.8 24 8 98420 47
2012-04-19 09:26:03 51°26.237 2°48.453 14 306 8 98420 47
2012-04-19 09:26:08 51°26.229 2°48.434 7.1 24 8 98430 47
2012-04-19 09:26:13 51°26.221 2°48.414 13.5 305 8 98430 47
2012-04-19 09:26:18 51°26.213 2°48.394 4.1 23 8 98420 46
2012-04-19 09:26:23 51°26.205 2°48.373 16.8 307 8 98420 46
2012-04-19 09:26:28 51°26.196 2°48.352 17.3 21 8 98430 48
2012-04-19 09:26:33 51°26.188 2°48.33 4.4 305 8 98430 48
2012-04-19 09:26:38 51°26.18 2°48.309 8 315 8 98430 47
2012-04-19 09:26:43 51°26.172 2°48.287 14.3 307 8 98430 47
2012-04-19 09:26:48 51°26.164 2°48.265 8.2 21 8 98420 48
2012-04-19 09:26:53 51°26.156 2°48.242 17.2 305 8 98420 48
2012-04-19 09:26:58 51°26.148 2°48.22 19.4 27 8 98410 47
2012-04-19 09:27:03 51°26.141 2°48.197 8.4 306 8 98410 47
2012-04-19 09:27:07 51°26.135 2°48.179 19.7 24 8 98410 47
2012-04-19 09:27:13 51°26.126 2°48.151 15 284 8 98410 47
2012-04-19 09:27:18 51°26.118 2°48.129 17.1 21 8.1 98410 47
2012-04-19 09:27:23 51°26.111 2°48.106 14.2 306 8.1 98410 47
2012-04-19 09:27:28 51°26.103 2°48.083 15.5 23 8 98390 47
2012-04-19 09:27:33 51°26.096 2°48.061 14.6 33 8 98390 47
2012-04-19 09:27:38 51°26.088 2°48.038 14.2 22 8 98400 47
2012-04-19 09:27:43 51°26.081 2°48.015 14.5 305 8 98400 47
2012-04-19 09:27:47 51°26.075 2°47.996 16.3 22 8 98450 47
2012-04-19 09:27:53 51°26.066 2°47.97 8.3 305 8 98450 47
2012-04-19 09:27:58 51°26.058 2°47.947 13.5 25 8 98410 47
2012-04-19 09:28:03 51°26.051 2°47.925 8.6 308 8 98410 47
2012-04-19 09:28:08 51°26.043 2°47.902 5.5 23 8.1 98420 47
2012-04-19 09:28:13 51°26.036 2°47.88 19.2 306 8.1 98420 47
2012-04-19 09:28:18 51°26.028 2°47.857 4.4 24 8 98410 48
2012-04-19 09:28:23 51°26.02 2°47.835 5.7 305 8 98410 48
2012-04-19 09:28:27 51°26.014 2°47.818 15.8 315 8.1 98410 47
2012-04-19 09:28:33 51°26.004 2°47.792 15.5 308 8.1 98410 47
2012-04-19 09:28:38 51°25.995 2°47.771 13.8 317 8 98400 46
2012-04-19 09:28:43 51°25.986 2°47.75 18 305 8 98400 46
2012-04-19 09:28:48 51°25.977 2°47.729 4.4 316 8 98410 47
2012-04-19 09:28:53 51°25.968 2°47.708 2.4 305 8 98410 47
2012-04-19 09:28:58 51°25.958 2°47.687 17.5 316 8.1 98400 46
2012-04-19 09:29:03 51°25.948 2°47.667 14.4 306 8.1 98400 46
2012-04-19 09:29:08 51°25.939 2°47.647 16.4 23 8.1 98420 48
2012-04-19 09:29:13 51°25.929 2°47.626 16.4 281 8.1 98420 48
2012-04-19 09:29:18 51°25.92 2°47.606 18.8 21 8.1 98410 47
2012-04-19 09:29:23 51°25.91 2°47.586 8.3 305 8.1 98410 47
2012-04-19 09:29:28 51°25.9 2°47.565 16.7 316 8.1 98400 47
2012-04-19 09:29:33 51°25.891 2°47.544 15.8 307 8.1 98400 47
2012-04-19 09:29:38 51°25.881 2°47.524 17.1 315 8.1 98400 48
2012-04-19 09:29:43 51°25.871 2°47.503 2.6 305 8.1 98400 48
2012-04-19 09:29:48 51°25.862 2°47.483 18 316 8.1 98410 47
2012-04-19 09:29:53 51°25.853 2°47.462 14.9 306 8.1 98410 47
2012-04-19 09:29:58 51°25.843 2°47.442 10.1 23 8.1 98410 47
2012-04-19 09:30:03 51°25.833 2°47.421 19.6 307 8.1 98410 47
2012-04-19 09:30:08 51°25.824 2°47.401 9.1 23 8.1 98400 47
2012-04-19 09:30:13 51°25.814 2°47.38 16.3 307 8.1 98400 47
2012-04-19 09:30:18 51°25.805 2°47.359 8.9 24 8.1 98390 47
2012-04-19 09:30:23 51°25.796 2°47.338 18.3 35 8.1 98390 47
2012-04-19 09:30:28 51°25.787 2°47.317 19.1 23 8.1 98390 47
2012-04-19 09:30:33 51°25.778 2°47.296 5.4 304 8.1 98390 47
2012-04-19 09:30:38 51°25.769 2°47.274 16 21 8.1 98400 47
2012-04-19 09:30:43 51°25.761 2°47.253 5.2 308 8.1 98400 47
2012-04-19 09:30:48 51°25.753 2°47.23 5.3 315 8.1 98410 47
2012-04-19 09:30:53 51°25.744 2°47.209 7.4 306 8.1 98410 47
2012-04-19 09:30:58 51°25.737 2°47.187 17 21 8.1 98400 47
2012-04-19 09:31:03 51°25.728 2°47.165 15.4 308 8.1 98400 47
2012-04-19 09:31:08 51°25.72 2°47.144 14.6 23 8.1 98410 47
2012-04-19 09:31:13 51°25.712 2°47.122 16.1 306 8.1 98410 47
2012-04-19 09:31:18 51°25.704 2°47.1 7.8 23 8.1 98410 47
2012-04-19 09:31:23 51°25.696 2°47.079 7.7 305 8.1 98410 47
2012-04-19 09:31:28 51°25.689 2°47.057 16.1 22 8.1 98400 48
2012-04-19 09:31:33 51°25.681 2°47.035 6.1 306 8.1 98400 48
2012-04-19 09:31:38 51°25.673 2°47.013 2.2 25 8.1 98420 45
2012-04-19 09:31:43 51°25.665 2°46.992 17.9 305 8.1 98420 45
2012-04-19 09:31:48 51°25.656 2°46.971 16.3 25 8.1 98400 47
2012-04-19 09:31:53 51°25.648 2°46.95 14.4 306 8.1 98400 47
2012-04-19 09:31:58 51°25.639 2°46.928 15.4 315 8.1 98410 48
2012-04-19 09:32:03 51°25.631 2°46.908 7.3 308 8.1 98410 48
2012-04-19 09:32:07 51°25.624 2°46.891 4.1 316 8.2 98420 48
2012-04-19 09:32:13 51°25.614 2°46.866 3.3 306 8.2 98420 48
2012-04-19 09:32:18 51°25.605 2°46.846 12.9 23 8.2 98420 47
2012-04-19 09:32:23 51°25.596 2°46.826 13.1 305 8.2 98420 47